Regional Weather Roundup
Issued by NWS Bismarck, ND

Home | Current Version | Previous Version | Text Only | Print | Product List | Glossary On
Versions: 1 2 3 4 5 6 7 8 9 10 11 12 13 14 15 16 17 18 19 20 21 22 23 24 25 26 27 28 29 30 31 32 33 34 35 36 37 38 39 40 41 42 43 44 45 46 47 48 49 50
000
ASUS43 KBIS 290910
RWRBIS

NWR BROADCAST TEXT
NATIONAL WEATHER SERVICE BISMARCK ND
400 AM CDT TUE JUL 29 2014

NOTE: "FAIR" INDICATES FEW OR NO CLOUDS BELOW 12,000 FEET WITH NO
SIGNIFICANT WEATHER AND/OR OBSTRUCTIONS TO VISIBILITY.


CITY           SKY/WX    TMP DP  RH WIND       PRES   REMARKS
WILLISTON      CLEAR     55  52  89 CALM      30.22S
MINOT          CLEAR     56  53  90 CALM      30.21S
MINOT AFB      CLEAR     54  54  99 W2        30.21S
BISMARCK       CLEAR     50  49  96 E3        30.24S
DICKINSON      CLEAR     54  50  86 S8        30.23S
GARRISON         N/A     54  53  97 CALM      30.22F
HETTINGER ARPT PTCLDY    50  46  86 CALM      30.26S
JAMESTOWN      CLEAR     55  51  86 CALM      30.21F
CARRINGTON     FAIR      50  50 100 W6        30.23S
CROSBY           N/A     59  59 100 SW8       30.22S
HARVEY         FAIR      50  50 100 SW3       30.22S
HAZEN          PTSUNNY   48  46  93 S3        30.24F
LINTON         FAIR      48  48 100 E6        30.23F
MANDAN         PTSUNNY   54  48  82 CALM      30.24F
RUGBY          FAIR      54  54 100 CALM      30.21F
STANLEY        PTSUNNY   57  57 100 CALM      30.24S
TIOGA          PTSUNNY   54  54 100 CALM      30.26S FOG
WATFORD CITY   FAIR      50  50 100 E3        30.21S
$$

CITY           SKY/WX    TMP DP  RH WIND       PRES   REMARKS
GRAND FORKS    CLEAR     53  51  93 W3        30.17S
GRAND FORKS AF CLEAR     54  53  99 W7        30.18F
DEVILS LAKE    CLEAR     57  54  88 CALM      30.20S
FARGO          CLEAR     54  51  90 W3        30.18S
CANDO          FAIR      50  48  93 CALM      30.22S
CAVALIER       FAIR      54  50  87 W3        30.17F
GRAFTON        FAIR      54  54 100 NW5       30.17S
GWINNER        SUNNY     54  54 100 W5        30.21F
LANGDON        FAIR      46  46 100 W3        30.20S
ROLLA          PTSUNNY   50  50 100 CALM      30.23S
WALHALLA         N/A     50  50 100 CALM        N/A
$$

CITY           SKY/WX    TMP DP  RH WIND       PRES   REMARKS
ABERDEEN       CLEAR     47  45  93 CALM      30.22S
MOBRIDGE       CLEAR     55  52  89 SE6       30.21F
BUFFALO          N/A     58  51  78 SE5       30.19F
RAPID CITY     CLEAR     52  49  89 NE3       30.26F
GLASGOW        PTCLDY    62  48  60 E8        30.19S
SIDNEY         CLEAR     55  50  82 CALM      30.22S
WOLF POINT     CLEAR     56  48  74 E5        30.20F
GLENDIVE       CLEAR     63  52  67 S5        30.23F
MILES CITY     PTCLDY    66  52  60 SE9       30.20F
BAKER          MOCLDY    59  51  75 CALM      30.25S
$$

CITY           SKY/WX    TMP DP  RH WIND       PRES   REMARKS
BILLINGS       CLOUDY    70  45  40 CALM      30.19S
GREAT FALLS    PTCLDY    66  47  50 S5        30.17R
REGINA         PTCLDY    59  57  94 VRB5      30.22S
ESTEVAN        PTCLDY    57  55  94 E2        30.21F
$$




USA.gov is the U.S. government's official web portal to all federal, state and local government web resources and services.